Location: Albany
(35.0000°S, 118.0000°E)
Time: 07:57:56
(UTC-04:00)

ADEOS Rocket - Visible Passes

Search period start: 24 October 2014 00:00
Search period end: 02 November 2014 23:00
Orbit: 860 x 1307 km, 98.7° (Epoch: 24 October)

Date Brightness Start Highest point End Pass type
(mag) Time Alt. Az. Time Alt. Az. Time Alt. Az.
24 Oct 4.5 08:17:08 10° SE 08:20:06 20° ESE 08:20:06 20° ESE visible
24 Oct 3.8 10:01:35 10° S 10:07:04 51° SW 10:07:04 51° SW visible
25 Oct 3.4 09:12:33 10° SSE 09:17:47 57° SE 09:17:47 57° SE visible
25 Oct 5.2 10:59:42 10° SSW 11:03:55 19° WSW 11:04:46 19° WSW visible
26 Oct 4.3 08:24:31 10° SE 08:28:30 25° ESE 08:28:30 25° ESE visible
26 Oct 4.0 10:09:25 10° S 10:15:26 45° WSW 10:15:28 45° WSW visible
27 Oct 3.2 09:20:14 10° SSE 09:26:11 73° ESE 09:26:11 73° ESE visible
27 Oct 5.4 11:07:51 10° SSW 11:11:37 16° WSW 11:13:10 15° W visible
28 Oct 4.0 08:31:59 10° SE 08:36:54 32° E 08:36:54 32° E visible
28 Oct 4.2 10:17:17 10° S 10:23:13 39° WSW 10:23:53 38° W visible
29 Oct 5.0 07:46:00 10° ESE 07:47:37 12° E 07:47:37 12° E visible
29 Oct 3.1 09:27:58 10° SSE 09:34:32 90° ENE 09:34:36 89° N visible
29 Oct 5.5 11:16:08 10° SSW 11:19:19 14° WSW 11:21:35 12° W visible
30 Oct 3.8 08:39:30 10° SSE 08:45:19 38° E 08:45:19 38° E visible
30 Oct 4.5 10:25:12 10° S 10:30:59 34° WSW 10:32:18 32° W visible
31 Oct 4.8 07:52:43 10° ESE 07:56:02 15° E 07:56:02 15° E visible
31 Oct 3.3 09:35:43 10° S 09:42:22 79° WSW 09:43:01 72° NW visible
31 Oct 5.7 11:24:40 10° SW 11:27:00 12° WSW 11:29:23 10° W visible
01 Nov 3.6 08:47:05 10° SSE 08:53:32 46° E 08:53:45 46° ENE visible
01 Nov 4.8 10:33:08 10° S 10:38:45 30° WSW 10:40:43 26° W visible
02 Nov 4.6 06:59:48 10° SE 07:04:28 19° E 07:04:28 19° E visible
02 Nov 3.5 08:43:30 10° S 08:50:11 69° WSW 08:51:27 58° NW visible
02 Nov 5.8 10:34:08 10° SW 10:34:40 10° WSW 10:35:11 10° WSW visible
